Regional Weather Roundup
Issued by NWS

Home | Current Version | Previous Version | Graphics & Text | Print | Product List | Glossary Off
Versions: 1 2 3 4 5 6 7 8 9 10 11 12 13 14 15 16 17 18 19 20 21 22 23 24 25 26 27 28 29 30 31 32 33 34 35 36 37 38 39 40 41 42 43 44 45 46 47 48 49 50

000
ASUS43 KTOP 270059
RWRKS

WEATHER ROUNDUP FOR KANSAS
NATIONAL WEATHER SERVICE GOODLAND KS
800 PM CDT TUE AUG 26 2014

NOTE:  "FAIR" INDICATES FEW OR NO CLOUDS BELOW 12,000 FEET WITH NO
SIGNIFICANT WEATHER AND/OR OBSTRUCTIONS TO VISIBILITY.

KSZ001>006-013>018-027>032-041>047-270200-
NORTHWEST KANSAS

CITY           SKY/WX    TMP DP  RH WIND       PRES   REMARKS
GOODLAND       CLOUDY    78  62  57 S6        30.12R
HAYS           CLEAR     82  66  57 SE8       30.05R
HILL CITY      PTCLDY    83  63  50 SE6       30.06R
RUSSELL        CLEAR     81  68  64 SE7       30.03S
$$

KSZ061>065-074>080-084>089-270200-
SOUTHWEST KANSAS

CITY           SKY/WX    TMP DP  RH WIND       PRES   REMARKS
DODGE CITY     MOCLDY    82  62  50 SE12      30.07S
ELKHART          N/A     76  57  51 S9          N/A
GARDEN CITY    MOCLDY    83  61  47 SE10      30.07R
GREAT BEND     PTCLDY    84  68  58 SE10      30.04R
LIBERAL        MOCLDY    79  66  65 E12       30.08F
$$

KSZ066>073-081>083-090>101-270200-
SOUTHEAST KANSAS

CITY           SKY/WX    TMP DP  RH WIND       PRES   REMARKS
CHANUTE        CLEAR     85  65  51 S3        30.02R
COFFEYVILLE    CLEAR     89  68  49 S5        30.00R
HUTCHINSON     PTCLDY    81  65  58 E5        30.04S
NEWTON         MOCLDY    82  63  51 E5        30.08R
PARSONS        CLEAR     84  70  62 CALM      30.03R
WICHITA INTL   MOCLDY    81  70  69 N7        30.02R
WICHITA JABRA  CLOUDY    80  71  74 NE7       30.03R
WINFIELD       MOCLDY    90  66  45 E3        30.02S
$$

KSZ007>012-019>026-033>040-048>060-102>105-270200-
NORTHEAST KANSAS

CITY           SKY/WX    TMP DP  RH WIND       PRES   REMARKS
CONCORDIA      MOCLDY    81  71  71 SE7       30.05R
EMPORIA        CLOUDY    80  69  69 N5        30.03S
LAWRENCE       MOCLDY    86  71  60 NE12      30.03R
MANHATTAN      PTCLDY    80  69  69 NE9       30.03F
OLATHE IND     PTCLDY    86  69  56 E7        30.05S
OLATHE EXE     CLEAR     86  70  58 E9        30.05R
SALINA         MOCLDY    85  64  49 E6        30.03R
TOPEKA BILLARD LGT RAIN  80  69  69 CALM      30.06F
TOPEKA FORBES  LGT RAIN  77  72  84 N8G17     30.06S
$$


USA.gov is the U.S. government's official web portal to all federal, state and local government web resources and services.